K3GM Weather Reports


Display with metric or nautical units.
time (UTC)temp
F
wind
direction
speed
MPH
gust
MPH
rain 1hr
in
rain 24hr
in
rain mn
in
humidity
%
barometer
mb
20260831060041 72 0 0.0 0.0 0.00 0.00 0.00 96 1019.2
20260831054553 72 0 0.0 0.0 0.00 0.00 0.00 96 1019.5
20260831053043 72 0 0.0 0.0 0.00 0.00 0.00 95 1019.5
20260831051545 73 0 0.0 0.0 0.00 0.00 0.00 94 1019.3
20260831050042 73 0 0.0 0.0 0.00 0.00 0.00 93 1019.2
20260831044602 73 0 0.0 0.0 0.00 0.00 0.00 92 1019.5
20260831043044 73 0 0.0 0.0 0.00 0.00 0.00 91 1019.8
20260831041604 74 0 0.0 0.0 0.00 0.00 0.00 89 1019.6
20260831040044 74 0 0.0 0.0 0.00 0.00 0.00 87 1019.8
20260831034545 75 0 0.0 0.0 0.00 0.00 0.00 86 1019.6
20260831033040 76 0 0.0 0.0 0.00 0.00 0.00 83 1019.4
20260831031542 77 0 0.0 0.0 0.00 0.00 0.00 81 1019.4
20260831030047 78 0 0.0 0.0 0.00 0.00 0.00 84 1019.5
20260831024544 78 0 0.0 0.0 0.00 0.00 0.00 84 1019.1
20260831023043 78 0 0.0 0.0 0.00 0.00 0.00 84 1019.0
20260831021542 78 0 0.0 0.0 0.00 0.00 0.00 84 1019.1
20260831020036 78 0 0.0 0.0 0.00 0.00 0.00 84 1019.2
20260831014537 78 0 0.0 0.0 0.00 0.00 0.00 83 1019.5
20260831013047 79 0 0.0 0.0 0.00 0.00 0.00 82 1019.5
20260831011542 79 0 0.0 0.0 0.00 0.00 0.00 82 1019.3
20260831010037 78 0 0.0 0.0 0.00 0.00 0.00 82 1019.3
20260831004537 79 0 0.0 0.0 0.00 0.00 0.00 81 1019.2
20260831003044 79 0 0.0 0.0 0.00 0.00 0.00 81 1018.9
20260831001541 79 0 0.0 0.0 0.00 0.00 0.00 80 1018.7
20260831000044 79 0 0.0 0.0 0.00 0.00 0.00 79 1018.8
20260830234546 80 0 0.0 0.0 0.00 0.00 0.00 77 1019.0
20260830233042 80 0 0.0 0.0 0.00 0.00 0.00 76 1018.8
20260830231557 81 0 0.0 0.0 0.00 0.00 0.00 75 1018.9
20260830230048 81 0 0.0 0.0 0.00 0.00 0.00 74 1018.8
20260830224549 82 0 0.0 0.0 0.00 0.00 0.00 67 1018.8
20260830223038 82 0 0.0 0.0 0.00 0.00 0.00 72 1018.8
20260830221543 82 0 0.0 0.0 0.00 0.00 0.00 65 1018.7
20260830220045 83 0 0.0 0.0 0.00 0.00 0.00 71 1018.5
20260830214541 82 0 0.0 0.0 0.00 0.00 0.00 72 1018.6
20260830213042 82 0 0.0 0.0 0.00 0.00 0.00 69 1018.6
20260830211542 82 0 0.0 0.0 0.00 0.00 0.00 70 1018.7
20260830210043 83 0 0.0 0.0 0.00 0.00 0.00 63 1018.7
20260830204540 83 0 0.0 0.0 0.00 0.00 0.00 61 1018.6
20260830203042 83 0 0.0 0.0 0.00 0.00 0.00 68 1018.6
20260830201543 82 0 0.0 0.0 0.00 0.00 0.00 64 1018.9
20260830200048 82 0 0.0 0.0 0.00 0.00 0.00 60 1019.3
20260830194544 83 0 0.0 0.0 0.00 0.00 0.00 67 1019.3
20260830193047 84 0 0.0 0.0 0.00 0.00 0.00 59 1019.3
20260830191551 84 0 0.0 0.0 0.00 0.00 0.00 60 1019.4
20260830190043 84 0 0.0 0.0 0.00 0.00 0.00 61 1019.5
20260830184543 84 0 0.0 0.0 0.00 0.00 0.00 67 1019.8
20260830183043 84 0 0.0 0.0 0.00 0.00 0.00 69 1020.1
20260830181544 83 0 0.0 0.0 0.00 0.00 0.00 62 1020.2
20260830180055 83 0 0.0 0.0 0.00 0.00 0.00 70 1020.5
20260830174550 83 0 0.0 0.0 0.00 0.00 0.00 71 1020.6
20260830173055 82 0 0.0 0.0 0.00 0.00 0.00 71 1020.9
20260830171545 82 0 0.0 0.0 0.00 0.00 0.00 63 1021.0
20260830170044 82 0 0.0 0.0 0.00 0.00 0.00 61 1021.1
20260830164544 83 0 0.0 0.0 0.00 0.00 0.00 62 1021.1
20260830163045 82 0 0.0 0.0 0.00 0.00 0.00 64 1021.1
20260830161544 81 0 0.0 0.0 0.00 0.00 0.00 72 1021.6
20260830160043 81 0 0.0 0.0 0.00 0.00 0.00 64 1021.6
20260830154541 81 0 0.0 0.0 0.00 0.00 0.00 65 1021.8
20260830153040 80 0 0.0 0.0 0.00 0.00 0.00 74 1021.8
20260830151541 80 0 0.0 0.0 0.00 0.00 0.00 74 1021.9
20260830150045 79 0 0.0 0.0 0.00 0.00 0.00 74 1022.0
20260830144545 77 0 0.0 0.0 0.00 0.00 0.00 69 1022.0
20260830143045 75 0 0.0 0.0 0.00 0.00 0.00 73 1022.3
20260830141551 73 0 0.0 0.0 0.00 0.00 0.00 83 1022.6
20260830140046 73 0 0.0 0.0 0.00 0.00 0.00 85 1022.6
20260830134542 71 0 0.0 0.0 0.00 0.00 0.00 88 1022.7
20260830133100 70 0 0.0 0.0 0.00 0.00 0.00 90 1022.9
20260830131542 69 0 0.0 0.0 0.00 0.00 0.00 91 1023.0
20260830130040 68 0 0.0 0.0 0.00 0.00 0.00 91 1023.2
20260830124545 66 0 0.0 0.0 0.00 0.00 0.00 92 1023.2
20260830123042 66 0 0.0 0.0 0.00 0.00 0.00 91 1023.5
20260830121541 65 0 0.0 0.0 0.00 0.00 0.00 91 1023.5
20260830120044 64 0 0.0 0.0 0.00 0.00 0.00 91 1023.4
20260830114556 63 0 0.0 0.0 0.00 0.00 0.00 92 1023.5
20260830113040 63 0 0.0 0.0 0.00 0.00 0.00 92 1023.3
20260830111539 62 0 0.0 0.0 0.00 0.00 0.00 94 1023.6
20260830110043 62 0 0.0 0.0 0.00 0.00 0.00 94 1023.5
20260830104545 61 0 0.0 0.0 0.00 0.00 0.00 95 1023.3
20260830103040 61 0 0.0 0.0 0.00 0.00 0.00 95 1023.4
20260830101539 61 0 0.0 0.0 0.00 0.00 0.00 95 1023.4
20260830100043 61 0 0.0 0.0 0.00 0.00 0.00 95 1023.4
20260830094542 61 0 0.0 0.0 0.00 0.00 0.00 95 1023.4
20260830093038 61 0 0.0 0.0 0.00 0.00 0.00 96 1023.2
20260830091544 60 0 0.0 0.0 0.00 0.00 0.00 96 1023.0
20260830090057 60 0 0.0 0.0 0.00 0.00 0.00 96 1023.2
20260830084536 60 0 0.0 0.0 0.00 0.00 0.00 95 1023.4
20260830083044 61 0 0.0 0.0 0.00 0.00 0.00 95 1023.1
20260830081542 60 0 0.0 0.0 0.00 0.00 0.00 94 1023.5
20260830080044 61 0 0.0 0.0 0.00 0.00 0.00 95 1023.6
20260830074548 61 0 0.0 0.0 0.00 0.00 0.00 94 1023.4
20260830073104 61 0 0.0 0.0 0.00 0.00 0.00 94 1023.5
20260830071545 61 0 0.0 0.0 0.00 0.00 0.00 93 1023.7
20260830070043 61 0 0.0 0.0 0.00 0.00 0.00 93 1023.8
20260830064543 61 0 0.0 0.0 0.00 0.00 0.00 92 1024.0
20260830063043 62 0 0.0 0.0 0.00 0.00 0.00 91 1023.9
20260830061544 62 0 0.0 0.0 0.00 0.00 0.00 91 1023.8